Weather History for Copper Mountain, CO

Change the Weather History Date:

Monday, January 27, 2014

  Actual Average (KLXV) Record (KLXV)
Temperature  
Mean Temperature 14 °F -  
Max Temperature 23 °F 30 °F 48 °F (1983)
Min Temperature 6 °F 4 °F -16 °F (1979)
Degree Days  
Heating Degree Days 50 48  
Month to date heating degree days 1296  
Since 1 July heating degree days 6197  
Cooling Degree Days 0 0  
Month to date cooling degree days 0  
Year to date cooling degree days 0  
Moisture  
Dew Point 10 °F    
Average Humidity 75    
Maximum Humidity 80    
Minimum Humidity 63    
Precipitation  
Precipitation 0.00 in 0.01 in 0.23 in (2012)
Month to date precipitation 0.53  
Year to date precipitation 0.53  
Sea Level Pressure  
Sea Level Pressure 29.84 in    
Wind  
Wind Speed 27 mph (West)    
Max Wind Speed 39 mph    
Max Gust Speed 53 mph    
Visibility 4 miles    
Events Snow    
T = Trace of Precipitation, MM = Missing Value Source: NWS Daily Summary

Daily Weather History Graph

Daily Weather History Graph

Search for Another Location

Airport:

Trip Planner

Search our weather history database for the weather conditions in past years. The results will help you decide how hot, cold, wet, or windy it might be!

Date:

Astronomy

Jan. 27, 2014 Rise Set
Actual Time 7:16 AM MST 5:19 PM MST
Civil Twilight 6:47 AM MST 5:47 PM MST
Nautical Twilight 6:15 AM MST 6:20 PM MST
Astronomical Twilight 5:43 AM MST 6:51 PM MST
Moon 4:00 AM MST (1/27) 2:08 PM MST (1/27)
Length of Visible Light 11h 00m
Length of Day
10h 02m
Waning Crescent, 14% of the Moon is Illuminated
Jan 27
Waning Crescent
Jan 30
New
Feb 6
First Quarter
Feb 14
Full
Feb 22
Last Quarter

Hourly Weather History & Observations

Time (MST) Temp. Windchill Dew Point Humidity Pressure Visibility Wind Dir Wind Speed Gust Speed Precip Events Conditions
12:16 AM 23.0 °F 5.1 °F 12.2 °F 63% 29.94 in 5.0 mi West 31.1 mph - N/A   Haze
12:36 AM 23.0 °F 5.1 °F 12.2 °F 63% 29.93 in 7.0 mi West 31.1 mph 38.0 mph N/A   Overcast
12:56 AM 21.2 °F - 12.2 °F 68% 29.94 in 7.0 mi North - - N/A   Overcast
1:16 AM 21.2 °F - 10.4 °F 63% 29.93 in 10.0 mi North - - N/A   Overcast
1:36 AM 19.4 °F 5.0 °F 12.2 °F 74% 29.94 in 5.0 mi West 16.1 mph - N/A Snow Light Snow
1:56 AM 19.4 °F 4.5 °F 14.0 °F 80% 29.94 in 2.0 mi West 17.3 mph 21.9 mph N/A Snow Light Snow
2:16 AM 19.4 °F 3.6 °F 14.0 °F 80% 29.93 in 0.5 mi West 19.6 mph - N/A Snow Snow
2:36 AM 19.4 °F 2.1 °F 14.0 °F 80% 29.92 in 0.5 mi West 24.2 mph 35.7 mph N/A Snow Snow
2:56 AM 19.4 °F 1.8 °F 14.0 °F 80% 29.92 in 1.0 mi West 25.3 mph 31.1 mph N/A Snow Light Snow
3:16 AM 19.4 °F 1.8 °F 14.0 °F 80% 29.92 in 0.5 mi West 25.3 mph 33.4 mph N/A Snow Snow
3:36 AM 19.4 °F - 14.0 °F 80% 29.91 in - North - - N/A   Overcast
3:56 AM 19.4 °F 1.1 °F 14.0 °F 80% 29.91 in - West 27.6 mph 39.1 mph N/A   Overcast
4:16 AM 19.4 °F 0.8 °F 14.0 °F 80% 29.90 in - West 28.8 mph 39.1 mph N/A   Overcast
4:36 AM 19.4 °F 1.4 °F 14.0 °F 80% 29.89 in - West 26.5 mph 40.3 mph N/A   Overcast
4:56 AM 19.4 °F 0.5 °F 14.0 °F 80% 29.89 in - West 29.9 mph 40.3 mph N/A   Overcast
5:16 AM 19.4 °F 1.1 °F 14.0 °F 80% 29.89 in - West 27.6 mph 36.8 mph N/A   Overcast
5:36 AM 19.4 °F 2.5 °F 14.0 °F 80% 29.88 in - West 23.0 mph 39.1 mph N/A   Overcast
5:56 AM 19.4 °F 3.2 °F 12.2 °F 74% 29.88 in - West 20.7 mph 27.6 mph N/A   Overcast
6:16 AM 17.6 °F 4.3 °F 12.2 °F 79% 29.88 in - West 12.7 mph - N/A   Overcast
6:26 AM 17.6 °F 3.2 °F 12.2 °F 79% 29.88 in - West 15.0 mph 21.9 mph N/A   Overcast
7:56 AM 15.8 °F -0.2 °F 10.4 °F 79% 29.88 in 10.0 mi West 17.3 mph - N/A   Overcast
8:16 AM 17.6 °F 0.9 °F 10.4 °F 73% 29.88 in 7.0 mi West 20.7 mph 25.3 mph N/A   Overcast
8:36 AM 19.4 °F 1.8 °F 10.4 °F 68% 29.88 in 10.0 mi West 25.3 mph 28.8 mph N/A   Overcast
8:56 AM 19.4 °F 2.5 °F 10.4 °F 68% 29.88 in 10.0 mi West 23.0 mph 29.9 mph N/A   Overcast
9:16 AM 19.4 °F 2.5 °F 10.4 °F 68% 29.89 in 7.0 mi West 23.0 mph 31.1 mph N/A   Overcast
9:35 AM 19.4 °F 2.1 °F 10.4 °F 68% 29.89 in 4.0 mi West 24.2 mph 32.2 mph N/A   Haze
9:56 AM 19.4 °F 1.4 °F 10.4 °F 68% 29.88 in 3.0 mi West 26.5 mph 35.7 mph N/A   Haze
10:16 AM 19.4 °F 0.8 °F 10.4 °F 68% 29.88 in 0.5 mi West 28.8 mph 41.4 mph N/A Snow Light Snow
10:29 AM 19.4 °F -0.0 °F 10.4 °F 68% 29.88 in 1.8 mi West 32.2 mph 38.0 mph N/A Snow Light Snow
11:16 AM 19.4 °F 0.5 °F 10.4 °F 68% 29.86 in 4.0 mi West 29.9 mph 38.0 mph N/A   Haze
11:36 AM 19.4 °F 0.8 °F 10.4 °F 68% 29.85 in 1.5 mi West 28.8 mph 44.9 mph N/A Snow Light Snow
11:56 AM 19.4 °F -0.0 °F 12.2 °F 74% 29.84 in 0.8 mi West 32.2 mph 41.4 mph N/A Snow Light Snow
12:16 PM 19.4 °F 0.5 °F 12.2 °F 74% 29.82 in 0.8 mi West 29.9 mph 42.6 mph N/A Snow Light Snow
12:36 PM 19.4 °F 0.5 °F 14.0 °F 80% 29.82 in 0.2 mi West 29.9 mph 40.3 mph N/A Snow Snow
12:56 PM 19.4 °F -0.8 °F 14.0 °F 80% 29.80 in - West 35.7 mph 41.4 mph N/A   Overcast
1:16 PM 19.4 °F 0.2 °F 14.0 °F 80% 29.80 in - West 31.1 mph 42.6 mph N/A   Overcast
1:36 PM 19.4 °F -0.6 °F 14.0 °F 80% 29.79 in - West 34.5 mph 44.9 mph N/A   Overcast
1:56 PM 19.4 °F -0.3 °F 14.0 °F 80% 29.78 in - West 33.4 mph 40.3 mph N/A   Overcast
2:16 PM 19.4 °F 0.2 °F 14.0 °F 80% 29.77 in - West 31.1 mph 40.3 mph N/A   Overcast
2:36 PM 19.4 °F -0.3 °F 14.0 °F 80% 29.77 in - West 33.4 mph 44.9 mph N/A   Overcast
2:56 PM 19.4 °F -0.3 °F 14.0 °F 80% 29.77 in - West 33.4 mph 39.1 mph N/A   Overcast
3:16 PM 19.4 °F -1.1 °F 14.0 °F 80% 29.76 in - West 36.8 mph 49.5 mph N/A   Overcast
3:36 PM 19.4 °F -1.3 °F 14.0 °F 80% 29.76 in - West 38.0 mph 49.5 mph N/A   Overcast
3:56 PM 19.4 °F -0.8 °F 14.0 °F 80% 29.75 in - West 35.7 mph 42.6 mph N/A   Overcast
4:16 PM 19.4 °F -1.3 °F 14.0 °F 80% 29.76 in - West 38.0 mph 46.0 mph N/A   Overcast
4:36 PM 19.4 °F 0.8 °F 14.0 °F 80% 29.77 in - West 28.8 mph 49.5 mph N/A   Overcast
4:56 PM 17.6 °F -1.0 °F 12.2 °F 79% 29.76 in - West 26.5 mph 52.9 mph N/A   Overcast
5:16 PM 17.6 °F -1.9 °F 12.2 °F 79% 29.76 in - West 29.9 mph 40.3 mph N/A   Overcast
5:36 PM 17.6 °F -4.1 °F 10.4 °F 73% 29.73 in - West 39.1 mph 47.2 mph N/A   Overcast
5:56 PM 17.6 °F -3.1 °F 10.4 °F 73% 29.75 in - West 34.5 mph 49.5 mph N/A   Overcast
6:16 PM 17.6 °F -0.6 °F 10.4 °F 73% 29.76 in - West 25.3 mph 48.3 mph N/A   Overcast
6:36 PM 17.6 °F -2.8 °F 10.4 °F 73% 29.77 in 0.2 mi WNW 33.4 mph 51.8 mph N/A Snow Heavy Snow
6:56 PM 14.0 °F -7.1 °F 8.6 °F 79% 29.78 in 0.2 mi WNW 31.1 mph 39.1 mph N/A Snow Heavy Snow
7:16 PM 14.0 °F -5.8 °F 8.6 °F 79% 29.79 in 0.2 mi West 26.5 mph 42.6 mph N/A   Overcast
7:36 PM 14.0 °F -6.2 °F 8.6 °F 79% 29.79 in - West 27.6 mph 43.7 mph N/A   Overcast
7:56 PM 14.0 °F -8.8 °F 8.6 °F 79% 29.78 in - WNW 38.0 mph 46.0 mph N/A   Overcast
8:16 PM 12.2 °F -9.3 °F 5.0 °F 73% 29.80 in - WNW 29.9 mph 43.7 mph N/A   Overcast
8:36 PM 12.2 °F -8.9 °F 5.0 °F 73% 29.81 in - WNW 28.8 mph 47.2 mph N/A   Overcast
8:56 PM 12.2 °F -8.2 °F 5.0 °F 73% 29.81 in - West 26.5 mph 36.8 mph N/A   Overcast
9:16 PM 10.4 °F -9.5 °F 3.2 °F 73% 29.81 in - West 23.0 mph 36.8 mph N/A   Overcast
9:36 PM 10.4 °F -9.5 °F 3.2 °F 73% 29.81 in - WNW 23.0 mph 35.7 mph N/A   Overcast
9:56 PM 8.6 °F -9.5 °F 1.4 °F 73% 29.82 in - West 17.3 mph 33.4 mph N/A   Overcast
10:16 PM 8.6 °F - 1.4 °F 73% 29.81 in - North - - N/A   Overcast
10:36 PM 8.6 °F - 1.4 °F 73% 29.81 in - North - - N/A   Overcast
10:56 PM 8.6 °F -14.1 °F 1.4 °F 73% 29.80 in - West 29.9 mph 41.4 mph N/A   Overcast
11:16 PM 8.6 °F - -0.4 °F 67% 29.81 in - North - - N/A   Overcast
11:36 PM 6.8 °F - -0.4 °F 72% 29.81 in - North - - N/A   Overcast
11:56 PM 6.8 °F - -0.4 °F 72% 29.81 in - North - - N/A   Overcast